This demonstration page uses our WeatherBlox Daily Observations layout. Learn more.

Left ArrowRight Arrow

Hourly Observations for October 11, 2016

Temp ( °F °C ) Dew Point ( °F °C ) Humidity (%) Winds ( mph kmh ) Pressure ( in mb ) Visibility ( mi km ) Precip ( " mm )
12:51 am 00:51 Clear 63 17.2 56 13.3 78 78 Calm 29.96 1015 10 16 0.00 0.00
1:51 am 01:51 Clear 60 15.6 55 12.8 84 84 SE 3 6 29.95 1014 10 16 0.00 0.00
2:51 am 02:51 Clear 59 15 55 12.8 87 87 Calm 29.95 1014 10 16 0.00 0.00
3:51 am 03:51 Clear 57 13.9 54 12.2 90 90 Calm 29.95 1014 10 16 0.00 0.00
4:51 am 04:51 Clear 57 13.9 54 12.2 90 90 E 3 6 29.96 1015 10 16 0.00 0.00
5:51 am 05:51 Clear 57 13.9 52 11.1 83 83 Calm 29.99 1016 10 16 0.00 0.00
6:51 am 06:51 Sunny 57 13.9 52 11.1 83 83 S 5 7 30.02 1017 10 16 0.00 0.00
7:51 am 07:51 Sunny 63 17.2 52 11.1 68 68 SSE 5 7 30.03 1017 10 16 0.00 0.00
8:51 am 08:51 Sunny 72 22.2 50 10 46 46 ESE 9 15 30.03 1017 10 16 0.00 0.00
9:51 am 09:51 Sunny 77 25 48 8.9 36 36 ESE 6 9 30.03 1017 10 16 0.00 0.00
10:51 am 10:51 Sunny 79 26.1 48 8.9 34 34 SSE 6 9 30.01 1016 10 16 0.00 0.00
11:51 am 11:51 Sunny 83 28.3 49 9.4 31 31 ESE 3 6 29.97 1015 10 16 0.00 0.00
12:51 pm 12:51 Sunny 86 30 43 6.1 22 22 SE 5 7 29.93 1014 10 16 0.00 0.00
1:51 pm 13:51 Sunny 89 31.7 41 5 19 19 VRB 3 6 29.89 1012 10 16 0.00 0.00
2:51 pm 14:51 Sunny 89 31.7 39 3.9 17 17 Calm 29.88 1012 10 16 0.00 0.00
3:51 pm 15:51 Sunny 89 31.7 40 4.4 18 18 NW 6 9 29.88 1012 10 16 0.00 0.00
4:51 pm 16:51 Sunny 89 31.7 40 4.4 18 18 Calm 29.86 1011 10 16 0.00 0.00
5:51 pm 17:51 Clear 84 28.9 47 8.3 27 27 Calm 29.87 1012 10 16 0.00 0.00
6:51 pm 18:51 Clear 75 23.9 58 14.4 55 55 Calm 29.90 1013 10 16 0.00 0.00
7:51 pm 19:51 Clear 70 21.1 54 12.2 57 57 Calm 29.91 1013 10 16 0.00 0.00
8:51 pm 20:51 Clear 68 20 51 10.6 55 55 NNE 3 6 29.92 1013 10 16 0.00 0.00
9:51 pm 21:51 Clear 66 18.9 52 11.1 61 61 NNW 5 7 29.93 1013 10 16 0.00 0.00
10:51 pm 22:51 Clear 65 18.3 49 9.4 56 56 NNE 3 6 29.93 1014 10 16 0.00 0.00
11:51 pm 23:51 Clear 64 17.8 50 10 60 60 undefined N/A 29.92 1013 10 16 0.00 0.00

Powered by AerisWeather